Time,TemperatureF,DewpointF,PressureIn,WindDirection,WindDirectionDegrees,WindSpeedMPH,WindSpeedGustMPH,Humidity,HourlyPrecipIn,Conditions,Clouds,dailyrainin,SoftwareType,DateUTC
2013-05-04 00:01:00,42.0,23.0,-100.00,NE,48,12.0,17.0,47,0.00,,,-99.99,,2013-05-04 06:01:00,
2013-05-04 00:11:00,42.0,23.0,-100.00,NE,45,13.0,17.0,47,0.00,,,-99.99,,2013-05-04 06:11:00,
2013-05-04 00:32:00,42.0,23.0,-100.00,NE,54,9.0,13.0,46,0.00,,,-99.99,,2013-05-04 06:32:00,
2013-05-04 00:41:00,42.0,23.0,-100.00,NE,51,9.0,13.0,47,0.00,,,-99.99,,2013-05-04 06:41:00,
2013-05-04 00:52:00,41.0,23.0,-100.00,NNE,32,6.0,10.0,48,0.00,,,-99.99,,2013-05-04 06:52:00,
2013-05-04 01:01:00,42.0,23.0,-100.00,NNE,32,6.0,11.0,47,0.00,,,-99.99,,2013-05-04 07:01:00,
2013-05-04 01:11:00,42.0,22.0,-100.00,NE,38,9.0,17.0,46,0.00,,,-99.99,,2013-05-04 07:11:00,
2013-05-04 01:21:00,42.0,22.0,-100.00,NE,51,13.0,18.0,45,0.00,,,-99.99,,2013-05-04 07:21:00,
2013-05-04 01:32:00,42.0,22.0,-100.00,NE,52,13.0,18.0,44,0.00,,,-99.99,,2013-05-04 07:32:00,
2013-05-04 01:52:00,42.0,24.0,-100.00,NE,49,12.0,14.0,48,0.00,,,-99.99,,2013-05-04 07:52:00,
2013-05-04 02:01:00,42.0,23.0,-100.00,NE,52,10.0,13.0,48,0.00,,,-99.99,,2013-05-04 08:01:00,
2013-05-04 02:11:00,42.0,23.0,-100.00,NE,49,11.0,14.0,47,0.00,,,-99.99,,2013-05-04 08:11:00,
2013-05-04 02:21:00,38.0,27.0,-100.00,North,11,9.0,12.0,64,0.00,,,-99.99,,2013-05-04 08:21:00,
2013-05-04 02:31:00,38.0,27.0,-100.00,NNE,20,9.0,14.0,65,0.00,,,-99.99,,2013-05-04 08:31:00,
2013-05-04 02:41:00,37.0,27.0,-100.00,NNE,13,12.0,18.0,66,0.00,,,-99.99,,2013-05-04 08:41:00,
2013-05-04 02:52:00,38.0,26.0,-100.00,NNE,27,9.0,12.0,60,0.00,,,-99.99,,2013-05-04 08:52:00,
2013-05-04 03:02:00,39.0,26.0,-100.00,NE,37,10.0,19.0,59,0.00,,,-99.99,,2013-05-04 09:02:00,
2013-05-04 03:11:00,40.0,26.0,-100.00,NE,41,10.0,18.0,56,0.00,,,-99.99,,2013-05-04 09:11:00,
2013-05-04 03:21:00,41.0,26.0,-100.00,NE,51,14.0,18.0,55,0.00,,,-99.99,,2013-05-04 09:21:00,
2013-05-04 03:32:00,41.0,26.0,-100.00,NE,45,13.0,18.0,56,0.00,,,-99.99,,2013-05-04 09:32:00,
2013-05-04 03:42:00,40.0,27.0,-100.00,NE,51,12.0,17.0,57,0.00,,,-99.99,,2013-05-04 09:42:00,
2013-05-04 03:52:00,40.0,26.0,-100.00,NE,49,12.0,17.0,57,0.00,,,-99.99,,2013-05-04 09:52:00,
2013-05-04 04:02:00,40.0,26.0,-100.00,NE,51,14.0,21.0,56,0.00,,,-99.99,,2013-05-04 10:02:00,
2013-05-04 04:12:00,40.0,26.0,-100.00,NE,51,14.0,21.0,56,0.00,,,-99.99,,2013-05-04 10:12:00,
2013-05-04 04:22:00,40.0,26.0,-100.00,NE,52,13.0,19.0,56,0.00,,,-99.99,,2013-05-04 10:22:00,
2013-05-04 04:33:00,40.0,27.0,-100.00,NE,52,14.0,19.0,59,0.00,,,-99.99,,2013-05-04 10:33:00,
2013-05-04 04:52:00,40.0,27.0,-100.00,NE,51,13.0,18.0,62,0.00,,,-99.99,,2013-05-04 10:52:00,
2013-05-04 05:02:00,40.0,26.0,-100.00,NE,48,19.0,27.0,59,0.00,,,-99.99,,2013-05-04 11:02:00,
2013-05-04 05:11:00,40.0,26.0,-100.00,NE,47,21.0,30.0,58,0.00,,,-99.99,,2013-05-04 11:11:00,
2013-05-04 05:21:00,39.0,26.0,-100.00,NE,42,21.0,30.0,60,0.00,,,-99.99,,2013-05-04 11:21:00,
2013-05-04 05:32:00,39.0,26.0,-100.00,NE,42,19.0,27.0,61,0.00,,,-99.99,,2013-05-04 11:32:00,
2013-05-04 05:42:00,39.0,27.0,-100.00,NE,44,19.0,28.0,61,0.00,,,-99.99,,2013-05-04 11:42:00,
2013-05-04 05:54:00,39.0,26.0,-100.00,NE,45,19.0,26.0,60,0.00,,,-99.99,,2013-05-04 11:54:00,
2013-05-04 06:04:00,39.0,26.0,-100.00,NE,45,17.0,26.0,60,0.00,,,-99.99,,2013-05-04 12:04:00,
2013-05-04 06:13:00,39.0,26.0,-100.00,NE,44,17.0,26.0,59,0.00,,,-99.99,,2013-05-04 12:13:00,
2013-05-04 06:26:00,39.0,26.0,-100.00,NE,34,11.0,21.0,59,0.00,,,-99.99,,2013-05-04 12:26:00,
2013-05-04 06:35:00,39.0,26.0,-100.00,NE,40,16.0,26.0,60,0.00,,,-99.99,,2013-05-04 12:35:00,
2013-05-04 06:51:00,39.0,25.0,-100.00,NE,47,24.0,31.0,57,0.00,,,-99.99,,2013-05-04 12:51:00,
2013-05-04 07:01:00,39.0,25.0,-100.00,NE,47,24.0,34.0,57,0.00,,,-99.99,,2013-05-04 13:01:00,
2013-05-04 07:11:00,39.0,26.0,-100.00,NE,47,24.0,34.0,58,0.00,,,-99.99,,2013-05-04 13:11:00,
2013-05-04 07:21:00,40.0,25.0,-100.00,NE,47,23.0,30.0,56,0.00,,,-99.99,,2013-05-04 13:21:00,
2013-05-04 07:41:00,41.0,22.0,-100.00,NE,41,17.0,26.0,48,0.00,,,-99.99,,2013-05-04 13:41:00,
2013-05-04 07:52:00,42.0,21.0,-100.00,NE,35,13.0,22.0,43,0.00,,,-99.99,,2013-05-04 13:52:00,
2013-05-04 08:02:00,43.0,21.0,-100.00,NE,37,16.0,27.0,40,0.00,,,-99.99,,2013-05-04 14:02:00,
2013-05-04 08:11:00,43.0,21.0,-100.00,NE,35,16.0,29.0,40,0.00,,,-99.99,,2013-05-04 14:11:00,
2013-05-04 08:21:00,44.0,21.0,-100.00,NNE,31,14.0,22.0,40,0.00,,,-99.99,,2013-05-04 14:21:00,
2013-05-04 08:32:00,43.0,21.0,-100.00,NE,37,17.0,32.0,40,0.00,,,-99.99,,2013-05-04 14:32:00,
2013-05-04 08:41:00,42.0,20.0,-100.00,NE,40,18.0,34.0,40,0.00,,,-99.99,,2013-05-04 14:41:00,
2013-05-04 08:51:00,43.0,20.0,-100.00,NE,38,20.0,33.0,41,0.00,,,-99.99,,2013-05-04 14:51:00,
2013-05-04 09:02:00,43.0,20.0,-100.00,NE,34,18.0,32.0,40,0.00,,,-99.99,,2013-05-04 15:02:00,
2013-05-04 09:11:00,44.0,20.0,-100.00,NNE,31,17.0,29.0,39,0.00,,,-99.99,,2013-05-04 15:11:00,
2013-05-04 09:22:00,44.0,21.0,-100.00,NNE,28,17.0,28.0,40,0.00,,,-99.99,,2013-05-04 15:22:00,
2013-05-04 09:33:00,45.0,23.0,-100.00,NNE,25,18.0,26.0,41,0.00,,,-99.99,,2013-05-04 15:33:00,
2013-05-04 09:43:00,45.0,22.0,-100.00,NE,34,17.0,27.0,40,0.00,,,-99.99,,2013-05-04 15:43:00,
2013-05-04 10:03:00,43.0,21.0,-100.00,NNE,32,17.0,27.0,41,0.00,,,-99.99,,2013-05-04 16:03:00,
2013-05-04 10:12:00,43.0,23.0,-100.00,NNE,31,17.0,24.0,44,0.00,,,-99.99,,2013-05-04 16:12:00,
2013-05-04 10:22:00,44.0,22.0,-100.00,NE,40,21.0,37.0,42,0.00,,,-99.99,,2013-05-04 16:22:00,
2013-05-04 10:33:00,46.0,23.0,-100.00,NE,35,18.0,35.0,41,0.00,,,-99.99,,2013-05-04 16:33:00,
2013-05-04 10:42:00,45.0,21.0,-100.00,NNE,24,18.0,26.0,38,0.00,,,-99.99,,2013-05-04 16:42:00,
2013-05-04 10:52:00,45.0,23.0,-100.00,NNE,27,18.0,28.0,40,-99.99,,,-99.99,,2013-05-04 16:52:00,
2013-05-04 11:02:00,45.0,23.0,-100.00,NNE,32,17.0,30.0,41,0.00,,,-99.99,,2013-05-04 17:02:00,
2013-05-04 11:12:00,45.0,21.0,-100.00,NE,34,17.0,34.0,39,0.00,,,-99.99,,2013-05-04 17:12:00,
2013-05-04 11:22:00,46.0,21.0,-100.00,NE,37,19.0,35.0,36,0.00,,,-99.99,,2013-05-04 17:22:00,
2013-05-04 11:32:00,46.0,21.0,-100.00,NNE,28,16.0,30.0,37,0.00,,,-99.99,,2013-05-04 17:32:00,
2013-05-04 11:42:00,47.0,23.0,-100.00,NNE,20,18.0,28.0,39,0.00,,,-99.99,,2013-05-04 17:42:00,
2013-05-04 11:52:00,48.0,23.0,-100.00,NNE,21,18.0,26.0,37,0.00,,,-99.99,,2013-05-04 17:52:00,
2013-05-04 12:01:00,47.0,20.0,-100.00,NNE,25,16.0,24.0,35,0.00,,,-99.99,,2013-05-04 18:01:00,
2013-05-04 12:12:00,49.0,21.0,-100.00,NNE,23,17.0,24.0,34,0.00,,,-99.99,,2013-05-04 18:12:00,
2013-05-04 12:21:00,49.0,21.0,-100.00,NNE,28,16.0,27.0,33,-99.99,,,-99.99,,2013-05-04 18:21:00,
2013-05-04 12:32:00,47.0,21.0,-100.00,NNE,27,17.0,32.0,35,0.00,,,-99.99,,2013-05-04 18:32:00,
2013-05-04 12:42:00,49.0,20.0,-100.00,NNE,21,17.0,29.0,32,0.00,,,-99.99,,2013-05-04 18:42:00,
2013-05-04 12:52:00,49.0,21.0,-100.00,NNE,24,17.0,27.0,32,0.00,,,-99.99,,2013-05-04 18:52:00,
2013-05-04 13:01:00,48.0,21.0,-100.00,NNE,27,17.0,28.0,34,0.00,,,-99.99,,2013-05-04 19:01:00,
2013-05-04 13:11:00,49.0,23.0,-100.00,NNE,24,16.0,26.0,35,0.00,,,-99.99,,2013-05-04 19:11:00,
2013-05-04 13:21:00,48.0,22.0,-100.00,NNE,17,18.0,29.0,35,0.00,,,-99.99,,2013-05-04 19:21:00,
2013-05-04 13:32:00,49.0,22.0,-100.00,NNE,27,16.0,27.0,34,0.00,,,-99.99,,2013-05-04 19:32:00,
2013-05-04 13:42:00,-999.0,-99.9,-100.00,NNE,27,17.0,27.0,-999,-99.99,,,-99.99,,2013-05-04 19:42:00,
2013-05-04 13:52:00,50.0,23.0,-100.00,NNE,30,17.0,32.0,34,0.00,,,-99.99,,2013-05-04 19:52:00,
2013-05-04 14:02:00,50.0,22.0,-100.00,NNE,24,17.0,27.0,34,0.00,,,-99.99,,2013-05-04 20:02:00,
2013-05-04 14:11:00,49.0,22.0,-100.00,NNE,25,16.0,25.0,34,0.00,,,-99.99,,2013-05-04 20:11:00,
2013-05-04 14:22:00,49.0,24.0,-100.00,NNE,20,16.0,26.0,37,0.00,,,-99.99,,2013-05-04 20:22:00,
2013-05-04 14:32:00,48.0,23.0,-100.00,NNE,28,17.0,29.0,36,0.00,,,-99.99,,2013-05-04 20:32:00,
2013-05-04 14:42:00,49.0,23.0,-100.00,NNE,31,15.0,26.0,35,0.00,,,-99.99,,2013-05-04 20:42:00,
2013-05-04 14:51:00,48.0,22.0,-100.00,NNE,23,16.0,24.0,36,0.00,,,-99.99,,2013-05-04 20:51:00,
2013-05-04 15:02:00,49.0,22.0,-100.00,NNE,31,17.0,31.0,35,0.00,,,-99.99,,2013-05-04 21:02:00,
2013-05-04 15:11:00,48.0,24.0,-100.00,NE,35,16.0,31.0,37,0.00,,,-99.99,,2013-05-04 21:11:00,
2013-05-04 15:22:00,48.0,23.0,-100.00,NNE,31,17.0,30.0,38,0.00,,,-99.99,,2013-05-04 21:22:00,
2013-05-04 15:33:00,48.0,23.0,-100.00,NNE,31,19.0,32.0,37,0.00,,,-99.99,,2013-05-04 21:33:00,
2013-05-04 15:43:00,49.0,24.0,-100.00,NE,37,19.0,32.0,37,0.00,,,-99.99,,2013-05-04 21:43:00,
2013-05-04 15:52:00,48.0,23.0,-100.00,NNE,25,19.0,34.0,37,0.00,,,-99.99,,2013-05-04 21:52:00,
2013-05-04 16:03:00,48.0,23.0,-100.00,NE,34,17.0,34.0,37,0.00,,,-99.99,,2013-05-04 22:03:00,
2013-05-04 16:12:00,48.0,23.0,-100.00,NNE,31,16.0,26.0,38,0.00,,,-99.99,,2013-05-04 22:12:00,
2013-05-04 16:22:00,47.0,23.0,-100.00,NE,37,20.0,34.0,39,0.00,,,-99.99,,2013-05-04 22:22:00,
2013-05-04 16:33:00,49.0,23.0,-100.00,NNE,31,17.0,28.0,36,0.00,,,-99.99,,2013-05-04 22:33:00,
2013-05-04 16:42:00,47.0,23.0,-100.00,NNE,30,17.0,31.0,39,0.00,,,-99.99,,2013-05-04 22:42:00,
2013-05-04 16:52:00,46.0,23.0,-100.00,NNE,31,17.0,29.0,41,0.00,,,-99.99,,2013-05-04 22:52:00,
2013-05-04 17:02:00,45.0,23.0,-100.00,NE,34,17.0,34.0,42,0.00,,,-99.99,,2013-05-04 23:02:00,
2013-05-04 17:12:00,-999.0,-99.9,-100.00,NE,34,16.0,26.0,-999,-99.99,,,-99.99,,2013-05-04 23:12:00,
2013-05-04 17:21:00,46.0,25.0,-100.00,NE,34,19.0,33.0,44,0.00,,,-99.99,,2013-05-04 23:21:00,
2013-05-04 17:32:00,45.0,25.0,-100.00,NNE,27,18.0,29.0,44,0.00,,,-99.99,,2013-05-04 23:32:00,
2013-05-04 17:42:00,45.0,25.0,-100.00,NNE,28,18.0,32.0,44,0.00,,,-99.99,,2013-05-04 23:42:00,
2013-05-04 17:52:00,45.0,25.0,-100.00,NNE,28,17.0,26.0,45,0.00,,,-99.99,,2013-05-04 23:52:00,
2013-05-04 18:01:00,45.0,26.0,-100.00,NNE,25,17.0,29.0,46,0.00,,,-99.99,,2013-05-05 00:01:00,
2013-05-04 18:11:00,45.0,25.0,-100.00,NNE,30,15.0,21.0,45,0.00,,,-99.99,,2013-05-05 00:11:00,
2013-05-04 18:21:00,45.0,26.0,-100.00,NNE,30,16.0,27.0,46,0.00,,,-99.99,,2013-05-05 00:21:00,
2013-05-04 18:31:00,44.0,26.0,-100.00,NE,35,17.0,34.0,48,0.00,,,-99.99,,2013-05-05 00:31:00,
2013-05-04 18:42:00,44.0,25.0,-100.00,NNE,24,17.0,24.0,48,0.00,,,-99.99,,2013-05-05 00:42:00,
2013-05-04 18:51:00,44.0,26.0,-100.00,NNE,27,16.0,25.0,50,0.00,,,-99.99,,2013-05-05 00:51:00,
2013-05-04 19:01:00,43.0,26.0,-100.00,NNE,23,18.0,26.0,52,0.00,,,-99.99,,2013-05-05 01:01:00,
2013-05-04 19:11:00,42.0,26.0,-100.00,NNE,27,16.0,22.0,53,0.00,,,-99.99,,2013-05-05 01:11:00,
2013-05-04 19:21:00,42.0,26.0,-100.00,NNE,27,15.0,22.0,54,0.00,,,-99.99,,2013-05-05 01:21:00,
2013-05-04 19:32:00,41.0,26.0,-100.00,NNE,27,14.0,19.0,55,0.00,,,-99.99,,2013-05-05 01:32:00,
2013-05-04 19:42:00,41.0,26.0,-100.00,NNE,27,13.0,20.0,56,0.00,,,-99.99,,2013-05-05 01:42:00,
2013-05-04 19:52:00,40.0,26.0,-100.00,NNE,28,13.0,23.0,57,0.00,,,-99.99,,2013-05-05 01:52:00,
2013-05-04 20:02:00,40.0,26.0,-100.00,NNE,24,16.0,21.0,58,0.00,,,-99.99,,2013-05-05 02:02:00,
2013-05-04 20:11:00,39.0,26.0,-100.00,NNE,25,13.0,21.0,59,0.00,,,-99.99,,2013-05-05 02:11:00,
2013-05-04 20:31:00,39.0,27.0,-100.00,NNE,27,14.0,22.0,62,0.00,,,-99.99,,2013-05-05 02:31:00,
2013-05-04 20:42:00,38.0,27.0,-100.00,NNE,28,14.0,19.0,62,0.00,,,-99.99,,2013-05-05 02:42:00,
2013-05-04 20:52:00,38.0,27.0,-100.00,NE,34,15.0,26.0,63,0.00,,,-99.99,,2013-05-05 02:52:00,
2013-05-04 21:01:00,38.0,26.0,-100.00,NE,34,15.0,24.0,63,0.00,,,-99.99,,2013-05-05 03:01:00,
2013-05-04 21:11:00,38.0,26.0,-100.00,NE,34,16.0,26.0,61,0.00,,,-99.99,,2013-05-05 03:11:00,
2013-05-04 21:21:00,38.0,26.0,-100.00,NE,37,17.0,32.0,61,0.00,,,-99.99,,2013-05-05 03:21:00,
2013-05-04 21:33:00,38.0,26.0,-100.00,NE,37,17.0,31.0,61,0.00,,,-99.99,,2013-05-05 03:33:00,
2013-05-04 21:42:00,38.0,25.0,-100.00,NE,35,18.0,30.0,60,0.00,,,-99.99,,2013-05-05 03:42:00,
2013-05-04 21:52:00,38.0,25.0,-100.00,NE,35,17.0,34.0,60,0.00,,,-99.99,,2013-05-05 03:52:00,
2013-05-04 22:02:00,38.0,25.0,-100.00,NE,34,16.0,23.0,60,0.00,,,-99.99,,2013-05-05 04:02:00,
2013-05-04 22:12:00,37.0,25.0,-100.00,NNE,32,15.0,23.0,60,0.00,,,-99.99,,2013-05-05 04:12:00,
2013-05-04 22:22:00,37.0,25.0,-100.00,NNE,31,14.0,22.0,62,0.00,,,-99.99,,2013-05-05 04:22:00,
2013-05-04 22:32:00,37.0,25.0,-100.00,NNE,31,15.0,21.0,62,0.00,,,-99.99,,2013-05-05 04:32:00,
2013-05-04 22:43:00,36.0,25.0,-100.00,NNE,31,14.0,24.0,62,0.00,,,-99.99,,2013-05-05 04:43:00,
2013-05-04 22:52:00,37.0,24.0,-100.00,NNE,32,15.0,23.0,61,0.00,,,-99.99,,2013-05-05 04:52:00,
2013-05-04 23:02:00,37.0,25.0,-100.00,NNE,32,16.0,26.0,61,0.00,,,-99.99,,2013-05-05 05:02:00,
2013-05-04 23:12:00,37.0,25.0,-100.00,NE,34,16.0,25.0,61,0.00,,,-99.99,,2013-05-05 05:12:00,
2013-05-04 23:21:00,37.0,25.0,-100.00,NNE,32,15.0,22.0,62,0.00,,,-99.99,,2013-05-05 05:21:00,
2013-05-04 23:31:00,36.0,25.0,-100.00,NE,35,16.0,28.0,62,0.00,,,-99.99,,2013-05-05 05:31:00,
2013-05-04 23:42:00,36.0,24.0,-100.00,NE,35,18.0,31.0,60,0.00,,,-99.99,,2013-05-05 05:42:00,
2013-05-04 23:51:00,36.0,24.0,-100.00,NE,35,17.0,32.0,60,0.00,,,-99.99,,2013-05-05 05:51:00,